Boston, MA

2:05 AM EDT on April 23, 2017 (GMT -0400)
Logan International

Weather History for KBOS - March, 2014

Change the Weather History Date:

Sunday, March 2, 2014

  Actual Average Record
Temperature  
Mean Temperature 35 °F 35 °F  
Max Temperature 40 °F 42 °F 66 °F (2004)
Min Temperature 30 °F 28 °F 0 °F (1886)
Degree Days  
Heating Degree Days 30 30  
Month to date heating degree days 69 61  
Since 1 July heating degree days 4217 4103  
Cooling Degree Days 0 0  
Month to date cooling degree days 0 0  
Year to date cooling degree days 0 0  
Moisture  
Dew Point 20 °F    
Average Humidity 59    
Maximum Humidity 69    
Minimum Humidity 48    
Precipitation  
Precipitation T in 0.13 in 2.24 in (1983)
Month to date precipitation T 0.27  
Year to date precipitation 7.37 6.88  
Sea Level Pressure  
Sea Level Pressure 30.02 in    
Wind  
Wind Speed 7 mph (WSW)    
Max Wind Speed 16 mph    
Max Gust Speed 18 mph    
Visibility 10 miles    
Events Snow    
T = Trace of Precipitation, MM = Missing Value Source: NWS Daily Summary

Daily Weather History Graph

Daily Weather History Graph

Search for Another Location

Airport or City:

Trip Planner

Search our weather history database for the weather conditions in past years. The results will help you decide how hot, cold, wet, or windy it might be!

Date:

Astronomy

Mar. 02, 2014 Rise Set
Actual Time 6:17 AM EST 5:35 PM EST
Civil Twilight 5:49 AM EST 6:03 PM EST
Nautical Twilight 5:17 AM EST 6:35 PM EST
Astronomical Twilight 4:44 AM EST 7:08 PM EST
Moon 6:44 AM EST (3/2) 7:30 PM EST (3/2)
Length of Visible Light 12h 13m
Length of Day
11h 17m
Waxing Crescent, 3% of the Moon is Illuminated
Mar 2
Waxing Crescent
Mar 8
First Quarter
Mar 16
Full
Mar 23
Last Quarter
Mar 30
New

Hourly Weather History & Observations

Time (EST) Temp. Windchill Dew Point Humidity Pressure Visibility Wind Dir Wind Speed Gust Speed Precip Events Conditions
12:54 AM 33.1 °F 24.9 °F 19.9 °F 59% 30.08 in 10.0 mi SW 10.4 mph - N/A   Overcast
1:54 AM 33.1 °F 25.5 °F 18.0 °F 54% 30.06 in 10.0 mi WSW 9.2 mph - N/A   Overcast
2:54 AM 33.1 °F 24.4 °F 17.1 °F 52% 30.04 in 10.0 mi SW 11.5 mph - N/A   Overcast
3:54 AM 33.1 °F 26.9 °F 17.1 °F 52% 30.04 in 10.0 mi WSW 6.9 mph - N/A   Overcast
4:54 AM 34.0 °F 28.0 °F 17.1 °F 50% 30.05 in 10.0 mi West 6.9 mph - N/A   Overcast
5:54 AM 34.0 °F 28.0 °F 17.1 °F 50% 30.04 in 10.0 mi WSW 6.9 mph - N/A   Overcast
6:54 AM 33.1 °F 27.7 °F 19.0 °F 56% 30.04 in 6.0 mi West 5.8 mph - 0.00 in Snow Light Snow
7:54 AM 34.0 °F 29.8 °F 21.0 °F 59% 30.05 in 9.0 mi SW 4.6 mph - 0.00 in Snow Light Snow
8:54 AM 34.0 °F 28.0 °F 19.0 °F 54% 30.06 in 10.0 mi WSW 6.9 mph - 0.00 in   Overcast
9:54 AM 34.0 °F 28.0 °F 19.0 °F 54% 30.06 in 10.0 mi SW 6.9 mph - N/A   Overcast
10:54 AM 35.1 °F 30.1 °F 19.0 °F 52% 30.06 in 10.0 mi WSW 5.8 mph - N/A   Overcast
11:54 AM 36.0 °F 31.1 °F 19.9 °F 52% 30.03 in 10.0 mi Variable 5.8 mph - N/A   Overcast
12:54 PM 37.9 °F 33.5 °F 19.9 °F 48% 29.99 in 10.0 mi NNW 5.8 mph - N/A   Overcast
1:54 PM 37.9 °F 33.5 °F 21.9 °F 53% 29.98 in 10.0 mi ESE 5.8 mph - N/A   Overcast
2:54 PM 36.0 °F 31.1 °F 24.1 °F 62% 29.98 in 10.0 mi SE 5.8 mph - N/A   Overcast
3:54 PM 36.0 °F 31.1 °F 21.9 °F 57% 29.98 in 10.0 mi ESE 5.8 mph - N/A   Overcast
4:54 PM 36.0 °F 32.1 °F 21.9 °F 57% 29.99 in 10.0 mi East 4.6 mph 18.4 mph N/A   Overcast
5:54 PM 35.1 °F 29.3 °F 24.1 °F 64% 29.99 in 10.0 mi East 6.9 mph - N/A   Overcast
6:54 PM 34.0 °F 31.0 °F 25.0 °F 70% 30.00 in 10.0 mi East 3.5 mph - N/A   Overcast
7:54 PM 34.0 °F 27.2 °F 24.1 °F 67% 30.01 in 10.0 mi NNE 8.1 mph - N/A   Overcast
8:54 PM 32.0 °F 23.0 °F 17.1 °F 54% 30.01 in 10.0 mi NNE 11.5 mph - N/A   Overcast
9:54 PM 30.9 °F 22.8 °F 17.1 °F 57% 30.00 in 10.0 mi North 9.2 mph - N/A   Overcast
10:54 PM 30.9 °F 25.2 °F 16.0 °F 54% 30.00 in 10.0 mi NNE 5.8 mph - N/A   Overcast
11:54 PM 30.0 °F 22.4 °F 14.0 °F 51% 30.00 in 10.0 mi NNE 8.1 mph - N/A   Overcast